Back to catalog

SL-14 DEB

AlivePO
NORAD 19133·DEBRIS·🇷🇺 Russia

Launched Oct 26, 1978 from Plesetsk Cosmodrome

Loading…

Next Passes (next 24 hours)

TLE

FreshSource: Space-Track

Epoch: Sep 14, 2026, 10:11 UTC

1 19133U 78100F   26257.42440171  .00003187  00000-0  15615-1 0  9996
2 19133  82.3313 235.3340 0058436 326.9175 200.0576 12.71347236148063

Track SL-14 DEB in real time with AllMySat

Download on the App Store